Location: Houghton
(47.1220°N, 88.5690°W)
Time: 10:45:38
(UTC-05:00)

OTV 5 (USA 277) - Visible Passes

Search period start: 25 February 2018 00:00
Search period end: 07 March 2018 00:00
Orbit: 404 x 417 km, 43.0° (Epoch: 07 September)

Date Brightness Start Highest point End Pass type
(mag) Time Alt. Az. Time Alt. Az. Time Alt. Az.
25 Feb ? 05:58:49 28° S 05:59:26 31° SSE 06:02:23 10° ESE visible
26 Feb ? 05:10:07 17° ESE 05:10:07 17° ESE 05:11:16 10° ESE visible
26 Feb ? 06:42:52 14° WSW 06:45:25 40° S 06:48:31 10° ESE visible
27 Feb ? 05:54:08 38° S 05:54:26 39° S 05:57:31 10° ESE visible
28 Feb ? 05:05:23 18° ESE 05:05:23 18° ESE 05:06:30 10° ESE visible
28 Feb ? 06:38:08 15° WSW 06:40:25 36° S 06:43:28 10° ESE visible
01 Mar ? 05:49:24 39° S 05:49:27 39° S 05:52:32 10° ESE visible
02 Mar ? 05:00:41 17° ESE 05:00:41 17° ESE 05:01:34 10° ESE visible
02 Mar ? 06:33:26 15° WSW 06:35:23 26° SSW 06:38:11 10° SE visible
03 Mar ? 05:44:46 30° S 05:44:46 30° S 05:47:23 10° SE visible
04 Mar ? 04:56:09 12° ESE 04:56:09 12° ESE 04:56:31 10° ESE visible
04 Mar ? 06:28:55 13° SW 06:30:15 16° SSW 06:32:22 10° SSE visible
05 Mar ? 05:40:23 18° S 05:40:23 18° S 05:41:54 10° SSE visible
